Temperature
17 17 17 17 17 16 16 16 16 16 16 16 16 16 16 16 16 15 15 15 15 15 15 15 15 14 14 14 14 14 14 14 14 15 15 15 15 15 15 15 14 14 14
17 17 17 17 16 16 16 16 16 16 16 16 16 16 16 16 16 16 16 15 15 15 15 14 14 14 14 14 14 14 14 14 14 14 15 15 15 15 14 14 14 14 14
17 17 17 17 17 16 16 16 16 16 16 16 16 16 16 16 16 16 16 15 15 15 15 15 14 14 14 14 14 14 14 14 14 14 14 14 15 14 14 14 14 14 14
17 17 17 17 17 16 16 16 16 16 16 16 16 16 16 16 16 16 15 15 15 15 15 15 14 14 14 14 14 14 14 14 14 14 14 14 14 14 14 14 14 14 14
17 17 17 17 16 16 16 16 16 16 16 16 16 16 16 16 15 15 15 15 14 14 14 14 14 14 14 14 14 14 14 13 13 13 13 13 14 14 13 13 13 14 14
17 17 17 16 16 16 16 16 16 16 16 16 15 15 15 15 15 14 14 14 14 14 13 13 13 13 13 13 13 13 13 13 12 12 13 13 13 13 12 12 12 12 13
17 16 16 16 16 15 15 15 15 15 15 15 15 14 14 14 13 13 13 13 13 13 12 12 12 12 12 12 12 12 12 12 11 11 11 11 11 11 11 11 11 11 11
16 15 15 15 15 15 15 14 14 14 14 14 13 13 13 12 12 12 12 12 12 12 12 11 11 11 11 11 11 11 11 11 11 11 11 10 10 10 10 10 10 10 11
15 14 14 14 14 14 14 13 13 13 13 13 12 12 12 12 11 11 11 11 11 11 11 10 10 10 10 10 10 10 10 10 10 10 10 10 10 10 9 9 9 9 9
13 13 13 13 13 13 13 12 12 12 12 12 11 11 11 11 10 10 10 10 10 10 10 9 9 9 9 9 9 9 9 9 9 9 9 8 8 8 8 8 8 8 8
12 12 12 12 12 12 12 11 11 11 11 11 11 10 10 10 10 10 9 9 9 9 9 8 8 8 8 8 7 7 7 7 7 7 7 7 7 7 7 7 7 7 6
12 12 12 11 11 11 11 11 11 10 10 10 10 10 9 9 9 9 9 8 8 8 8 7 7 7 7 6 6 6 6 6 6 6 6 6 6 6 6 6 6 6 6
11 11 11 11 11 11 11 10 10 10 10 10 9 9 9 8 8 8 8 7 7 7 6 6 6 6 6 5 5 5 5 5 5 5 5 5 5 5 5 5 5 5 5
11 11 11 10 10 10 10 10 10 9 9 9 9 8 8 7 7 7 7 6 6 6 6 5 5 5 5 4 4 4 4 4 4 4 3 4 4 4 4 4 4 4 5
10 10 10 10 10 10 9 9 9 9 8 8 8 7 7 6 6 6 5 5 5 5 4 4 4 4 4 4 4 4 4 3 3 3 3 3 3 3 3 3 3 3 3
10 10 9 9 9 9 9 8 8 8 7 7 7 6 6 5 5 4 4 4 4 3 3 3 3 3 3 2 2 2 3 2 2 2 2 2 2 2 2 2 3 3 3
9 9 9 9 8 8 8 8 7 7 6 6 5 5 4 4 4 3 3 3 3 2 2 2 2 2 1 1 1 1 1 1 2 2 2 2 1 2 2 2 2 2 2
9 8 8 8 8 7 7 6 6 6 5 5 4 4 3 3 3 2 2 2 2 2 1 1 1 1 0 0 0 0 0 1 1 1 1 1 1 1 1 1 1 1 2
8 8 7 7 7 6 6 5 5 5 4 4 3 3 2 2 2 2 1 1 1 1 1 0 0 -0 -0 -0 -0 -0 -0 0 0 0 1 1 1 1 1 1 1 1 1
7 7 6 6 6 5 5 4 4 3 3 3 2 2 2 2 1 1 1 0 0 -0 -0 -0 -0 -1 -1 -1 -1 -1 -1 -0 -0 -0 0 0 0 0 0 1 1 1 1
6 6 5 5 5 4 4 3 3 2 2 2 1 1 1 1 0 0 -0 -0 -1 -1 -1 -1 -1 -1 -1 -1 -1 -1 -1 -1 -1 -1 -0 -0 -0 0 0 1 1 1 1
5 5 5 4 4 3 3 2 2 2 1 1 1 1 0 0 -0 -0 -1 -1 -1 -1 -1 -1 -1 -1 -1 -1 -1 -1 -1 -1 -1 -1 -1 -0 -0 0 0 0 1 1 1
5 4 4 3 3 2 2 2 1 1 1 1 0 0 -0 -0 -1 -1 -1 -1 -1 -1 -1 -1 -1 -1 -1 -1 -1 -1 -1 -1 -1 -1 -1 -0 -0 0 0 0 1 1 1
4 3 3 2 2 2 1 1 1 0 0 0 -0 -0 -1 -1 -1 -1 -1 -1 -1 -1 -1 -1 -1 -1 -1 -1 -1 -1 -1 -1 -1 -1 -1 -1 -0 -0 0 0 0 1 1
3 3 2 2 1 1 1 1 0 0 0 -0 -0 -1 -1 -1 -1 -1 -1 -1 -1 -1 -1 -1 -1 -1 -1 -1 -1 -1 -1 -1 -1 -1 -1 -0 -0 0 0 0 0 1 1
2 2 2 1 1 1 1 0 0 -0 -0 -1 -1 -1 -1 -1 -1 -1 -1 -1 -1 -1 -1 -1 -1 -1 -1 -1 -1 -1 -1 -1 -1 -0 -0 -0 0 0 0 0 0 1 1
Wind_Speed
8 7 7 7 6 6 6 6 6 5 6 6 6 6 6 7 6 6 6 5 6 5 4 5 5 4 3 3 3 3 3 3 4 4 3 3 3 4 5 6 8 10 11
8 7 7 6 6 6 5 5 5 5 5 6 5 5 6 6 7 8 7 7 7 7 6 6 6 4 5 4 4 4 4 5 5 6 4 3 5 4 5 5 7 9 10
7 7 6 6 5 5 5 4 4 4 4 4 4 5 6 6 7 7 7 7 7 7 7 7 6 5 6 5 5 5 5 5 5 6 6 3 4 4 4 5 6 7 9
7 7 6 6 6 4 4 4 4 4 4 4 3 3 3 3 4 5 5 6 6 6 6 6 5 5 6 6 5 6 5 5 5 6 7 6 5 5 4 5 7 6 7
7 7 5 5 5 5 4 3 3 3 3 3 2 1 1 1 1 3 3 3 3 3 2 3 2 3 3 3 3 4 4 5 5 6 7 6 7 5 5 4 7 9 8
8 7 6 6 6 5 5 4 4 3 3 4 4 3 3 2 3 2 2 2 2 2 1 2 2 3 3 3 2 1 1 3 4 4 6 7 8 6 5 6 7 8 8
9 8 7 7 6 5 5 6 6 5 6 6 6 6 6 5 7 6 6 4 4 4 3 3 3 4 4 2 3 3 2 2 3 4 6 7 7 6 6 8 8 9 11
10 9 8 8 8 7 7 7 6 6 6 7 7 7 7 7 9 9 8 7 6 6 5 5 4 4 5 4 3 4 4 4 5 4 5 7 7 7 7 8 10 11 11
10 9 8 8 8 8 8 7 6 7 8 8 7 8 8 8 10 9 8 5 5 5 5 5 4 4 6 7 4 5 6 5 6 7 8 10 13 14 11 7 8 8 10
9 9 8 8 9 8 8 7 6 7 8 8 9 8 8 8 10 10 8 5 5 4 3 4 5 5 7 7 4 4 6 7 7 8 8 9 9 11 11 8 8 9 9
9 10 10 9 9 8 7 7 7 8 8 8 9 7 8 8 8 9 8 4 3 3 3 3 4 8 9 9 6 4 6 8 7 7 7 7 7 6 7 7 8 8 10
10 10 9 8 7 7 8 8 7 7 8 7 6 6 6 6 7 8 9 8 5 3 3 3 5 8 9 9 6 7 9 8 5 6 6 7 7 8 8 9 11 12 13
11 10 9 9 8 7 7 7 6 5 5 4 4 4 4 4 5 8 8 8 8 4 3 7 8 9 9 7 8 10 8 5 5 6 7 8 8 9 10 10 11 12 13
10 8 7 8 8 8 7 5 5 4 4 4 3 3 3 3 4 5 5 5 6 5 5 6 8 8 6 7 7 7 6 6 6 6 7 8 9 9 10 10 10 11 11
9 7 7 7 7 7 7 6 5 4 3 3 2 2 2 3 5 6 5 4 5 5 5 4 5 6 7 7 7 7 7 7 7 7 8 9 9 10 11 10 10 10 11
7 6 5 5 5 6 7 8 12 10 11 10 8 5 4 5 7 9 9 9 9 8 4 4 6 7 7 8 8 9 8 8 8 9 9 9 10 10 11 11 11 11 12
7 5 4 5 5 5 5 6 5 7 10 11 11 10 9 9 10 10 10 9 9 8 5 6 6 7 8 8 8 9 9 9 9 9 9 10 10 10 11 11 11 11 12
7 7 6 4 4 4 4 4 4 4 3 4 6 8 9 9 9 10 9 7 6 6 6 7 7 8 8 9 9 9 9 10 9 9 10 10 10 11 11 12 12 13 13
7 5 5 5 5 5 5 5 4 4 4 3 3 5 8 8 7 8 8 6 6 7 7 8 8 8 9 9 9 9 10 10 11 11 10 11 11 11 12 12 13 16 15
6 9 8 6 5 5 5 4 4 4 3 3 3 4 5 5 5 7 6 6 6 7 8 8 9 9 9 9 9 9 10 10 11 11 11 11 11 11 13 14 14 14 13
6 7 9 7 5 4 4 3 3 3 2 3 3 4 5 4 5 6 6 6 7 8 9 9 9 9 9 9 9 10 12 10 10 11 11 11 12 12 12 13 14 14 14
6 5 5 5 4 4 3 3 2 2 2 3 3 4 6 4 5 5 6 7 8 8 8 8 9 9 9 9 10 10 11 11 11 11 12 12 12 13 13 13 13 13 13
6 6 5 4 4 4 3 3 2 2 3 3 4 4 5 5 5 6 7 7 8 8 10 9 9 9 10 12 12 10 10 11 11 12 13 13 13 12 13 13 15 16 15
6 5 5 4 3 3 3 3 3 3 3 3 4 4 5 5 6 7 8 8 8 9 11 11 10 12 15 15 14 14 14 16 17 14 15 14 14 13 13 13 14 16 15
5 5 4 3 3 2 2 2 2 3 3 4 4 4 5 6 6 7 8 8 10 10 12 13 12 13 16 18 17 17 20 22 20 17 15 12 13 14 14 14 14 15 15
4 4 3 2 2 2 2 2 3 3 3 3 4 4 5 6 7 8 8 8 9 10 11 13 15 18 19 17 19 23 23 22 21 20 16 11 12 12 13 12 15 14 15
Wind_Direction
180 181 178 179 179 180 189 203 205 205 203 204 204 202 204 202 194 193 203 198 203 210 206 207 220 212 210 209 201 194 196 189 228 261 247 260 265 269 276 261 256 254 256
179 176 179 174 170 179 197 208 206 206 207 205 197 197 205 206 199 199 206 204 207 215 216 213 225 217 218 216 208 212 213 208 221 255 259 251 251 260 265 268 264 259 255
164 166 167 165 166 180 197 199 197 199 200 195 190 199 208 206 204 207 207 207 208 215 214 214 224 218 230 229 222 227 230 227 224 245 266 256 258 257 266 270 268 265 264
154 157 162 161 161 167 182 181 179 177 176 182 193 199 204 202 207 210 210 217 221 225 222 221 229 228 239 242 238 239 238 238 235 245 264 270 268 264 257 270 280 273 271
142 146 153 146 143 144 145 144 142 150 160 153 139 141 161 166 204 200 205 210 216 236 242 228 230 236 244 245 251 253 246 249 252 257 268 276 278 274 272 272 279 286 279
132 129 123 118 116 119 122 119 110 99 91 89 87 75 61 56 59 99 135 120 112 106 59 49 54 37 31 34 20 358 304 258 263 262 270 276 283 283 283 280 283 287 287
113 111 112 112 108 99 99 93 87 80 79 78 78 82 78 63 67 74 84 90 83 78 75 64 59 46 38 13 357 352 330 307 280 265 273 279 286 292 296 290 280 274 272
103 103 102 100 95 88 85 80 77 77 79 81 77 79 79 65 68 76 82 82 80 73 68 67 63 35 23 9 357 349 329 314 298 282 270 276 281 283 277 278 280 280 274
90 90 91 96 94 89 87 82 79 83 79 74 69 66 68 56 55 68 77 77 75 65 54 46 40 30 11 9 1 338 324 317 312 306 296 291 288 286 283 281 277 277 282
84 83 81 85 89 89 88 84 81 86 84 80 71 62 64 59 53 60 71 74 69 53 40 29 22 6 354 357 350 333 319 315 320 320 313 308 301 296 291 272 269 274 280
87 83 77 76 82 85 82 78 84 87 84 81 77 64 56 50 46 50 58 63 67 50 23 1 348 345 343 339 331 306 291 298 305 306 307 307 307 302 296 288 273 266 273
82 77 72 66 75 84 84 78 79 88 88 81 77 63 45 36 36 36 41 43 42 39 358 336 327 330 333 331 327 314 312 315 313 313 312 312 311 309 305 300 291 281 271
78 73 70 69 65 69 80 84 77 78 88 85 80 71 44 27 20 22 23 21 18 9 338 333 334 337 337 333 329 329 331 330 324 317 314 310 307 304 304 302 298 292 286
81 74 70 73 69 63 65 72 83 85 90 88 81 69 42 22 13 6 3 0 359 355 343 336 336 338 339 329 329 333 333 323 314 309 309 308 308 307 304 304 301 302 299
82 78 77 77 81 76 69 59 68 61 93 105 94 86 54 24 359 359 2 355 348 340 336 344 351 348 346 342 336 331 327 325 319 313 311 310 309 308 305 305 299 299 295
89 83 85 88 87 91 93 76 56 65 67 72 76 78 56 38 17 20 17 11 5 0 4 351 343 338 333 330 327 324 322 320 318 314 311 309 308 307 305 303 298 295 294
98 95 90 92 96 98 99 102 91 59 55 55 53 52 47 33 29 22 13 7 9 9 6 347 337 330 325 321 318 315 314 314 312 309 307 307 306 305 304 302 300 296 294
92 94 96 90 92 93 95 95 99 96 68 41 31 30 27 24 24 20 11 10 4 3 352 340 332 327 322 318 316 315 314 314 312 310 308 307 306 306 305 302 300 297 297
95 94 91 90 89 90 90 88 83 77 68 47 24 12 7 6 10 11 12 10 352 344 339 332 327 322 319 317 314 312 312 311 311 311 309 308 308 307 304 301 300 297 295
94 104 101 95 89 87 84 82 75 67 57 42 23 6 356 3 7 359 360 352 343 335 331 327 324 320 319 316 315 315 313 312 313 312 310 309 307 304 301 301 299 298 296
96 99 98 91 86 85 82 78 73 65 46 23 2 348 353 356 351 346 345 342 338 333 330 325 321 320 320 318 318 317 315 312 312 312 310 308 306 303 299 297 295 294 294
99 97 94 93 87 79 75 68 61 45 21 5 350 349 354 358 349 344 341 338 335 330 326 323 321 320 321 322 320 316 314 314 315 314 311 307 303 300 298 297 297 297 295
99 98 92 84 81 76 67 51 37 22 8 360 353 352 353 350 344 340 336 333 331 328 327 325 321 321 323 322 319 315 314 314 314 312 308 304 302 300 298 297 296 298 298
99 100 96 86 75 64 53 39 28 19 9 2 359 356 352 347 343 340 337 333 330 327 327 326 322 321 324 325 321 317 314 315 314 308 302 298 298 296 295 294 294 295 296
98 95 88 78 68 56 45 35 25 18 12 8 4 359 354 349 344 340 338 335 332 329 329 328 326 326 325 324 323 323 321 317 312 310 306 298 293 293 293 293 295 297 297
96 92 85 77 65 51 40 28 20 14 9 4 359 353 348 344 341 339 337 336 334 331 329 328 328 329 327 327 325 325 322 319 317 314 310 300 297 296 299 299 300 300 299
Height
1515 1519 1522 1526 1530 1533 1535 1538 1540 1542 1543 1545 1546 1547 1548 1549 1549 1549 1550 1550 1551 1552 1552 1553 1553 1554 1554 1555 1555 1555 1555 1556 1555 1555 1555 1556 1556 1556 1556 1556 1556 1556 1556
1513 1517 1521 1524 1527 1530 1533 1535 1537 1539 1541 1542 1543 1544 1545 1546 1546 1547 1547 1547 1548 1549 1549 1550 1551 1551 1551 1552 1552 1552 1552 1552 1551 1550 1550 1551 1551 1551 1551 1551 1551 1550 1550
1511 1515 1518 1521 1524 1527 1530 1532 1535 1537 1538 1539 1540 1541 1541 1542 1543 1543 1544 1544 1544 1545 1546 1546 1547 1547 1547 1548 1548 1548 1548 1548 1547 1546 1545 1545 1545 1546 1545 1545 1545 1544 1544
1509 1513 1516 1519 1522 1525 1527 1529 1531 1533 1534 1535 1536 1537 1538 1538 1539 1539 1539 1540 1540 1541 1541 1542 1542 1543 1543 1543 1543 1543 1543 1543 1542 1541 1540 1539 1539 1539 1539 1538 1537 1537 1537
1507 1510 1513 1516 1519 1522 1524 1526 1528 1530 1531 1532 1533 1533 1534 1534 1534 1534 1535 1535 1535 1536 1536 1537 1537 1538 1537 1538 1538 1537 1537 1537 1536 1535 1534 1533 1533 1533 1532 1531 1529 1528 1528
1504 1508 1511 1514 1516 1519 1521 1523 1525 1526 1527 1528 1528 1529 1529 1529 1529 1530 1530 1531 1531 1531 1532 1532 1532 1532 1532 1532 1531 1531 1531 1530 1530 1529 1528 1527 1526 1526 1525 1524 1522 1520 1518
1503 1506 1509 1511 1514 1516 1518 1520 1521 1522 1523 1524 1524 1525 1525 1525 1526 1526 1526 1527 1527 1527 1528 1527 1527 1527 1527 1527 1526 1526 1525 1524 1523 1523 1521 1520 1519 1518 1517 1515 1514 1512 1510
1502 1505 1508 1510 1512 1515 1516 1518 1519 1520 1521 1522 1522 1522 1523 1523 1523 1524 1524 1524 1524 1524 1524 1523 1523 1523 1522 1522 1521 1520 1519 1518 1517 1516 1515 1513 1512 1511 1510 1508 1506 1503 1501
1502 1505 1508 1510 1512 1514 1516 1517 1518 1519 1520 1520 1521 1522 1522 1522 1522 1522 1522 1522 1522 1522 1521 1520 1519 1519 1518 1516 1515 1514 1513 1512 1510 1509 1507 1506 1504 1503 1502 1500 1498 1495 1491
1504 1507 1509 1511 1513 1515 1516 1517 1519 1519 1520 1520 1521 1522 1522 1521 1522 1521 1521 1521 1520 1519 1518 1518 1516 1515 1513 1511 1510 1508 1506 1504 1503 1501 1500 1498 1497 1495 1494 1493 1490 1487 1483
1507 1509 1511 1513 1515 1516 1517 1519 1519 1520 1521 1521 1521 1522 1522 1522 1521 1521 1520 1519 1518 1517 1516 1514 1513 1511 1509 1507 1505 1503 1500 1498 1496 1494 1492 1490 1489 1487 1486 1485 1483 1481 1477
1510 1512 1514 1515 1517 1518 1519 1520 1521 1521 1522 1522 1522 1522 1522 1521 1521 1520 1519 1518 1516 1515 1513 1511 1509 1507 1505 1503 1501 1498 1496 1493 1490 1488 1486 1484 1482 1480 1478 1477 1475 1473 1470
1513 1515 1516 1518 1519 1520 1521 1522 1522 1523 1522 1522 1522 1522 1521 1520 1520 1519 1517 1516 1513 1512 1509 1507 1505 1503 1500 1498 1496 1493 1491 1488 1485 1482 1480 1478 1475 1473 1471 1468 1466 1464 1461
1516 1517 1519 1520 1521 1522 1522 1523 1523 1523 1523 1522 1522 1521 1520 1519 1518 1516 1515 1513 1511 1508 1506 1503 1501 1498 1496 1493 1491 1488 1486 1483 1480 1477 1474 1472 1469 1467 1464 1461 1458 1455 1451
1518 1520 1521 1522 1523 1523 1523 1523 1523 1523 1522 1522 1521 1520 1518 1517 1515 1514 1512 1509 1507 1504 1502 1499 1496 1494 1491 1489 1486 1483 1481 1478 1475 1472 1469 1466 1463 1460 1457 1455 1451 1448 1444
1521 1522 1522 1523 1523 1524 1524 1523 1522 1522 1521 1520 1519 1518 1516 1515 1513 1511 1509 1506 1504 1501 1498 1495 1492 1489 1486 1483 1480 1478 1475 1473 1470 1467 1464 1460 1457 1454 1451 1448 1445 1441 1437
1522 1523 1523 1524 1524 1524 1524 1523 1522 1521 1520 1519 1517 1516 1514 1512 1510 1508 1506 1503 1500 1497 1494 1491 1488 1485 1482 1479 1476 1473 1470 1468 1465 1462 1459 1455 1452 1448 1445 1441 1438 1434 1430
1523 1523 1524 1524 1523 1523 1523 1522 1521 1520 1519 1517 1516 1514 1512 1510 1507 1505 1503 1500 1497 1494 1491 1488 1485 1482 1479 1475 1472 1469 1466 1463 1460 1457 1454 1450 1447 1443 1439 1435 1431 1427 1423
1523 1523 1523 1523 1522 1522 1521 1520 1519 1518 1517 1515 1514 1512 1510 1508 1505 1503 1500 1497 1494 1491 1488 1485 1482 1478 1475 1472 1468 1465 1462 1458 1455 1452 1448 1445 1441 1437 1433 1428 1424 1420 1416
1523 1523 1522 1522 1521 1521 1520 1519 1518 1517 1515 1514 1512 1510 1508 1506 1503 1501 1498 1495 1492 1489 1485 1482 1478 1475 1471 1468 1464 1461 1457 1454 1450 1447 1443 1439 1435 1431 1426 1422 1418 1413 1408
1522 1522 1522 1521 1520 1520 1519 1518 1517 1515 1514 1513 1511 1509 1507 1504 1502 1499 1496 1493 1490 1486 1482 1478 1475 1471 1467 1464 1460 1456 1453 1449 1445 1441 1437 1433 1429 1424 1420 1416 1411 1407 1402
1522 1521 1521 1520 1520 1519 1518 1517 1516 1515 1514 1512 1510 1508 1506 1503 1500 1497 1494 1491 1488 1484 1480 1476 1472 1468 1464 1460 1456 1452 1448 1444 1440 1435 1431 1427 1422 1418 1414 1409 1405 1400 1396
1522 1521 1521 1520 1519 1519 1518 1517 1516 1515 1513 1512 1509 1507 1504 1502 1499 1496 1492 1489 1485 1481 1477 1473 1469 1464 1461 1457 1452 1448 1444 1439 1435 1430 1425 1420 1416 1412 1407 1403 1398 1394 1389
1521 1521 1521 1520 1519 1518 1518 1517 1516 1514 1513 1511 1508 1506 1503 1500 1497 1494 1490 1486 1482 1479 1475 1470 1466 1461 1457 1453 1449 1444 1440 1435 1430 1425 1420 1415 1410 1406 1401 1397 1392 1388 1383
1521 1521 1521 1520 1519 1519 1518 1517 1515 1514 1512 1509 1507 1504 1501 1498 1495 1492 1488 1484 1480 1476 1472 1467 1463 1458 1454 1449 1445 1440 1436 1431 1426 1420 1415 1410 1405 1400 1396 1391 1387 1382 1378
1522 1521 1521 1520 1519 1518 1517 1516 1514 1513 1510 1508 1506 1503 1500 1497 1493 1490 1486 1482 1478 1473 1469 1465 1460 1456 1451 1446 1441 1437 1432 1427 1421 1416 1411 1405 1400 1395 1391 1386 1382 1377 1373